Location: Asheville, NC
(35.6000°N, 82.5500°W)
Time: 09:16:19

RS-15 - Pass Details

Date: 18 March 2018
Orbit: 1888 x 2157 km, 64.8° (Epoch: 19 March)

Event Time Altitude Azimuth Distance (km) Brightness Sun altitude
Exits shadow 01:48:28 38° 331° (NNW) 2,956 9.0 -55.3°
Drops below altitude 10° 01:57:44 10° 21° (NNE) 4,565 10.3 -55.1°
Sets 02:01:32 0° 29° (NNE) 5,533 10.9 -54.9°
